Location: Liscomb Game Sanctuary
(45.1633°N, 62.5575°W)
Time: 16:27:24
(UTC-03:00)

SL-8 R/B - Pass Details

Date: 22 February 2018
Orbit: 656 x 668 km, 48.4° (Epoch: 19 June)

Event Time Altitude Azimuth Distance (km) Brightness Sun altitude
Rises 19:23:05 0° 251° (WSW) 2,978 8.3 -17.5°
Reaches altitude 10° 19:25:25 10° 252° (WSW) 2,066 7.3 -17.9°
Maximum altitude 19:30:12 83° 340° (NNW) 666 3.6 -18.7°
Enters shadow 19:32:05 37° 66° (ENE) 1,021 4.2 -19.1°
